{"data":{"norad_id":67876,"intl_designator":"2026-034AC","name":"STARLINK-36743","alt_names":[],"object_type":"PAYLOAD","status":"ACTIVE","operator":null,"country":"US","launch_date":"2026-02-20","launch_site_code":"AFETR","launch_vehicle":null,"mission":null,"orbit_class":"UNKNOWN","rcs_meters":null,"size_class":null,"mass_kg":null,"dimensions":null,"purposes":["comms"],"wikipedia_slug":null,"has_3d_model":false,"image_url":null,"decayed_at":null,"tle_current":{"epoch":"2026-09-19T19:53:13.279488Z","epoch_age_seconds":121286,"freshness":"FRESH","line1":"1 67876U 26034AC  26262.82862592  .00019174  00000+0  57670-3 0  9998","line2":"2 67876  53.1591  20.7558 0000864  71.0161 289.0936 15.34425492 33788","mean_motion":15.34425492,"eccentricity":8.64e-5,"inclination_deg":53.1591,"raan_deg":20.7558,"arg_perigee_deg":71.0161,"mean_anomaly_deg":289.0936,"bstar":0.0005767,"rev_number":3378,"period_min":93.846198952487,"perigee_km":462.03643160935,"apogee_km":463.2185157104,"semimajor_km":6840.7644736599,"source":"CELESTRAK","updated_at":"2026-09-20T09:00:43.694117Z"}}}